Regional Weather Roundup
Issued by NWS San Angelo, TX

Home | Current Version | Previous Version | Text Only | Print | Product List | Glossary On
Versions: 1 2 3 4 5 6 7 8 9 10 11 12 13 14 15 16 17 18 19 20 21 22 23 24 25 26 27 28 29 30 31 32 33 34 35 36 37 38 39 40 41 42 43 44 45 46 47 48 49 50
000
ASUS44 KSJT 262202
RWRSJT
WEST CENTRAL TEXAS REGIONAL WEATHER ROUNDUP
NATIONAL WEATHER SERVICE SAN ANGELO TX
500 PM CDT TUE SEP 26 2017

NOTE: "FAIR" INDICATES FEW OR NO CLOUDS BELOW 12,000 FEET WITH NO
SIGNIFICANT WEATHER AND/OR OBSTRUCTIONS TO VISIBILITY.

TXZ049-054-064>066-071>073-076>078-098-099-113-114-127-128-139-140-
154-155-168>170-262300
...LOCATIONS ACROSS WEST CENTRAL TEXAS...

CITY           SKY/WX    TMP DP  RH WIND       PRES   REMARKS
SAN ANGELO     RAIN      76  68  76 SE13      29.89S
ABILENE        CLOUDY    67  67 100 N20       29.94R
DYESS AFB      RAIN      68  68 100 N15       29.93R
JUNCTION       CLOUDY    77  68  73 E10       29.90R
SWEETWATER     CLOUDY    65  65 100 N13G20    30.01S
BROWNWOOD      CLOUDY    72  72 100 E5        29.92F
COLEMAN        CLOUDY    74  68  79 SE8       29.93R
SONORA         CLOUDY    81  63  54 SE9G15    29.94R
OZONA          FAIR      75  64  69 S7        29.93S
BRADY          NOT AVBL
$$

TEXAS PANHANDLE/OKLAHOMA PANHANDLE

CITY           SKY/WX    TMP DP  RH WIND       PRES   REMARKS
AMARILLO       NOT AVBL
BORGER         CLOUDY    61  53  75 NE13      30.11F
CANADIAN       CLOUDY    62  55  80 N12       30.10F
DALHART        CLOUDY    58  51  78 NE12      30.16S
DUMAS          CLOUDY    57  50  77 NE10      30.13F
GUYMON         NOT AVBL
HEREFORD       NOT AVBL
PAMPA          NOT AVBL
PERRYTON       PTSUNNY   62  53  72 NE9       30.12F
$$

SOUTHERN PANHANDLE/SOUTH PLAINS/ROLLING PLAINS

CITY           SKY/WX    TMP DP  RH WIND       PRES   REMARKS
LUBBOCK        CLOUDY    62  59  90 NE14      30.06R
SNYDER         RAIN      62  62  99 N15       30.00S
CHILDRESS      CLOUDY    64  59  83 NE12      30.04S
SEMINOLE       LGT RAIN  63  62  96 E15G22    30.02F
$$

PERMIAN BASIN

CITY           SKY/WX    TMP DP  RH WIND       PRES   REMARKS
MIDLAND        CLOUDY    66  63  90 NE21      29.97F
ODESSA         CLOUDY    66  64  93 NE23G29   29.99F
WINK           MOSUNNY   73  64  73 NE16      29.94S
$$

FAR WEST/SOUTHWEST MOUNTAINS/TRANS PECOS

CITY           SKY/WX    TMP DP  RH WIND       PRES   REMARKS
ALPINE         MOCLDY    75  60  61 NE12G17   30.02S
DRYDEN           N/A     83  65  54 E14       29.85S
EL PASO        MOSUNNY   85  55  35 E13G22    29.87F
FORT STOCKTON  HVY RAIN  71  70  96 NE20      29.92S FOG
GUADALUPE PASS NOT AVBL
MARFA          NOT AVBL
PECOS          MOCLDY    76  65  68 NE14G21   29.92S
$$

DALLAS/FORT WORTH METROPLEX

CITY           SKY/WX    TMP DP  RH WIND       PRES   REMARKS
DFW AIRPORT    CLOUDY    89  65  44 E10       29.85F
FTW MEACHAM    CLOUDY    90  67  46 E12       29.86S
DAL-EXECUTIVE  CLOUDY    91  63  39 E9        29.85F
GRAND PRAIRIE  SUNNY     90  61  37 E7        29.87F
ADDISON        MOSUNNY   88  61  40 E10       29.88S
MESQUITE       PTCLDY    88  64  45 NE6       29.87S
LANCASTER      CLOUDY    91  60  36 E7        29.87S
$$

NORTH CENTRAL TEXAS

CITY           SKY/WX    TMP DP  RH WIND       PRES   REMARKS
SHRMAN/DENISON CLOUDY    86  65  50 E5        29.91S
GAINESVILLE    CLOUDY    83  65  54 E5        29.92
BRIDGEPORT     CLOUDY    82  69  66 N5        29.91S
DENTON         PTSUNNY   86  67  52 E10       29.87F
WAXAHACHIE     PTCLDY    89  62  39 E5        29.87S
GRANBURY       CLOUDY    86  67  52 S10G18    29.88R
$$

WESTERN NORTH TEXAS

CITY           SKY/WX    TMP DP  RH WIND       PRES   REMARKS
WICHITA FALLS  LGT RAIN  68  66  93 N13       29.96R
VERNON         CLOUDY    65  62  87 NE15      30.00R
BRECKENRIDGE   LGT RAIN  74  71  89 NW14G21   29.93R
COMANCHE       RAIN      72  72 100 CALM      29.92S
$$

CENTRAL AND SOUTH CENTRAL TEXAS

CITY           SKY/WX    TMP DP  RH WIND       PRES   REMARKS
AUSTIN/BERGSTM RAIN      73  73 100 S6        29.88R VSB 1
WACO           CLOUDY    90  65  43 E8        29.85S
HILLSBORO      MOCLDY    90  63  39 SE9       29.86S
TEMPLE         CLOUDY    84  69  60 SE13      29.87R
KILLEEN-GRAY   CLOUDY    75  72  88 S8        29.89R
FORT HOOD      LGT RAIN N/A N/A N/A SW14      29.86R
GEORGETOWN     CLOUDY    75  73  93 W7        29.90S
LAGO VISTA     HVY RAIN  73  72  96 CALM      29.92S VSB 1
SAN MARCOS     RAIN     N/A N/A N/A NE3       29.89S
NEW BRAUNFELS  LGT RAIN  74  72  93 NE7       29.87R
RANDOLPH AFB   LGT RAIN  74  74 100 NE3       29.87S
SAN ANTONIO    LGT RAIN  74  71  91 E7        29.87S
STINSON        LGT RAIN  76  73  91 NE7       29.84F
PLEASANTON     NOT AVBL
LA GRANGE      LGT RAIN  79  75  86 S9        29.84R
GIDDINGS       LGT RAIN  84  70  63 E3        29.86S
$$

EAST TEXAS

CITY           SKY/WX    TMP DP  RH WIND       PRES   REMARKS
PARIS          SUNNY     88  65  46 E9        29.89F
CLARKSVILLE    NOT AVBL
TYLER          PTSUNNY   89  63  41 E7        29.87F
LONGVIEW       MOSUNNY   90  65  43 E9        29.86F
PALESTINE      CLOUDY    91  65  43 E6        29.87F
NACOGDOCHES    MOSUNNY   86  70  58 SE3       29.88F
$$

TEXAS HILL COUNTRY AND EDWARDS PLATEAU

CITY           SKY/WX    TMP DP  RH WIND       PRES   REMARKS
LLANO          NOT AVBL
HORSESHOE BAY  DRIZZLE   73  72  94 CALM      29.91S
KERRVILLE      LGT RAIN  73  71  93 E3        29.92R
FREDERICKSBRG  NOT AVBL
ROCKSPRINGS    NOT AVBL
HONDO          LGT RAIN  76  73  91 E8        29.86S
UVALDE         DRIZZLE   77  71  80 E8        29.85F
DEL RIO        CLOUDY    78  69  73 E14G20    29.82S
$$

SOUTHEAST TEXAS

CITY           SKY/WX    TMP DP  RH WIND       PRES   REMARKS
COLLEGE STN    PTSUNNY   87  70  56 E8        29.84F
CALDWELL       CLOUDY    86  71  60 E5        29.86R
CROCKETT       PTCLDY    86  68  54 NE3       29.89F
BRENHAM        CLOUDY    87  70  57 E3        29.85S
HUNTSVILLE     MOSUNNY   87  66  49 E3        29.85F
CONROE         MOSUNNY   89  68  49 E8        29.84F
HOUSTON BUSH   PTSUNNY   88  69  53 E9        29.83F
HOUSTON HOBBY  PTSUNNY   90  68  48 E6        29.82F
PERLAND        MOSUNNY   89  70  53 SE9       29.84F
WHARTON        MOCLDY    84  71  64 SE5       29.83S
$$

THE UPPER TEXAS COAST

CITY           SKY/WX    TMP DP  RH WIND       PRES   REMARKS
ORANGE         MOCLDY    88  73  61 MISG      29.86S
PORT ARTHUR    MOSUNNY   86  69  56 SE8       29.84S
GALVESTON      MOSUNNY   87  75  67 SE14      29.84F
ANGLETON       MOSUNNY   86  74  67 SE10      29.84S
BAY CITY       HAZE      86  73  63 SE10      29.82S VSB 1
$$

TEXAS COASTAL BEND, RIO GRANDE PLAINS DEEP SOUTH TEXAS

CITY           SKY/WX    TMP DP  RH WIND       PRES   REMARKS
VICTORIA       LGT RAIN  78  75  90 NW6       29.83R
BEEVILLE       LGT RAIN  77  77 100 NE8       29.81R
ROCKPORT       CLOUDY    84  76  76 SE14      29.80R
PORT ARANSAS   NOT AVBL
PORT LAVACA    CLOUDY    85  75  71 SE13G18   29.82S
CORPUS CHRISTI PTSUNNY   88  75  65 E20       29.77S
KINGSVILLE NAS LGT RAIN  84  77  79 SE14G23   29.76S
COTULLA        RAIN      73  73 100 N7        29.81R FOG
LAREDO         LGT RAIN  77  75  93 E15       29.75F FOG
BROWNSVILLE    CLOUDY    89  77  67 E14       29.74S
PORT ISABEL    PTSUNNY   90  76  63 SE20      29.74S
HEBBRONVILLE   CLOUDY    80  73  77 SE15G24   29.77R
MCALLEN        MOSUNNY   89  75  63 SE17G25   29.72S
WESLACO        PTSUNNY   85  77  77 S12       29.71F
FALFURRIAS     CLOUDY   -38  32 100 E9        29.75F WCI -62
EDINBURG       TSTM      84  75  74 E22G31    29.72F
$$




USA.gov is the U.S. government's official web portal to all federal, state and local government web resources and services.